• In Hungary
  • List of Countries
  • For 7 days
  • Water Temperature
  • Satellite Maps
  • Weather Map
  • News
  • Weather Widgets
  • user-avatar
    Login

    Hourly Weather Londrina

    Today, 14 November, Wednesday

    Time Temperature Precipitation Wind Pressure Humidity
    00:00 +27°C° 0 mm 1 mps 708 mmHg 72%
    01:00 +27°C° 0 mm 1 mps 707 mmHg 74%
    02:00 +26°C° 0 mm 1 mps 707 mmHg 75%
    03:00 +26°C° 0 mm 1 mps 707 mmHg 77%
    04:00 +26°C° 0 mm 1 mps 707 mmHg 78%
    05:00 +25°C° 0 mm 1 mps 707 mmHg 79%
    06:00 +25°C° 0 mm 1 mps 707 mmHg 80%
    07:00 +27°C° 0.4 mm 2 mps 707 mmHg 74%
    08:00 +29°C° 0.4 mm 3 mps 708 mmHg 68%
    09:00 +31°C° 0.4 mm 3 mps 708 mmHg 62%
    10:00 +33°C° 0.6 mm 3 mps 708 mmHg 58%
    11:00 +34°C° 0.6 mm 4 mps 708 mmHg 54%
    12:00 +35°C° 0.6 mm 4 mps 708 mmHg 50%
    13:00 +34°C° 0.6 mm 4 mps 708 mmHg 52%
    14:00 +34°C° 0.6 mm 3 mps 708 mmHg 54%
    15:00 +34°C° 0.6 mm 3 mps 707 mmHg 56%
    16:00 +31°C° 0.3 mm 3 mps 707 mmHg 61%
    17:00 +30°C° 0.3 mm 3 mps 707 mmHg 65%
    18:00 +29°C° 0.3 mm 3 mps 706 mmHg 70%
    19:00 +28°C° 0 mm 2 mps 707 mmHg 73%
    20:00 +27°C° 0 mm 2 mps 707 mmHg 76%
    21:00 +26°C° 0 mm 1 mps 707 mmHg 79%
    22:00 +26°C° 0 mm 1 mps 707 mmHg 79%
    23:00 +24°C° 0 mm 0 mps 707 mmHg 80%

    Tomorrow, 15 November, Thursday

    Time Temperature Precipitation Wind Pressure Humidity
    00:00 +23°C° 0 mm 0 mps 707 mmHg 80%
    01:00 +23°C° 0.2 mm 0 mps 707 mmHg 81%
    02:00 +23°C° 0.2 mm 0 mps 706 mmHg 81%
    03:00 +23°C° 0.2 mm 0 mps 706 mmHg 82%
    04:00 +23°C° 0.6 mm 0 mps 706 mmHg 83%
    05:00 +22°C° 0.6 mm 0 mps 706 mmHg 85%
    06:00 +22°C° 0.6 mm 0 mps 706 mmHg 86%
    07:00 +26°C° 0.3 mm 1 mps 707 mmHg 78%
    08:00 +28°C° 0.3 mm 1 mps 708 mmHg 71%
    09:00 +30°C° 0.3 mm 1 mps 708 mmHg 63%
    10:00 +31°C° 1.6 mm 1 mps 708 mmHg 60%
    11:00 +32°C° 1.6 mm 2 mps 708 mmHg 57%
    12:00 +34°C° 1.6 mm 2 mps 708 mmHg 55%
    13:00 +34°C° 1 mm 2 mps 707 mmHg 57%
    14:00 +32°C° 1 mm 2 mps 707 mmHg 59%
    15:00 +32°C° 1 mm 2 mps 707 mmHg 60%
    16:00 +30°C° 1.7 mm 2 mps 706 mmHg 67%
    17:00 +29°C° 1.7 mm 1 mps 706 mmHg 74%
    18:00 +28°C° 1.7 mm 1 mps 706 mmHg 81%
    19:00 +27°C° 0.5 mm 1 mps 707 mmHg 83%
    20:00 +26°C° 0.5 mm 1 mps 707 mmHg 84%
    21:00 +25°C° 0.5 mm 2 mps 708 mmHg 86%
    22:00 +25°C° 0 mm 2 mps 708 mmHg 87%
    23:00 +24°C° 0 mm 3 mps 708 mmHg 89%

    Day after tomorrow, 16 November, Friday

    Time Temperature Precipitation Wind Pressure Humidity
    00:00 +22°C° 0 mm 4 mps 708 mmHg 90%
    01:00 +22°C° 0 mm 4 mps 708 mmHg 90%
    02:00 +21°C° 0 mm 4 mps 708 mmHg 90%
    03:00 +20°C° 0 mm 4 mps 708 mmHg 89%
    04:00 +20°C° 0 mm 4 mps 708 mmHg 89%
    05:00 +20°C° 0 mm 4 mps 708 mmHg 88%
    06:00 +20°C° 0 mm 4 mps 708 mmHg 88%
    07:00 +22°C° 0 mm 4 mps 709 mmHg 82%
    08:00 +23°C° 0 mm 4 mps 710 mmHg 75%
    09:00 +26°C° 0 mm 4 mps 711 mmHg 69%
    10:00 +28°C° 0 mm 4 mps 710 mmHg 64%
    11:00 +30°C° 0 mm 4 mps 710 mmHg 59%
    12:00 +33°C° 0 mm 3 mps 710 mmHg 53%
    13:00 +33°C° 0.1 mm 3 mps 710 mmHg 52%
    14:00 +34°C° 0.1 mm 3 mps 709 mmHg 51%
    15:00 +34°C° 0.1 mm 3 mps 708 mmHg 50%
    16:00 +32°C° 0.2 mm 2 mps 708 mmHg 57%
    17:00 +30°C° 0.2 mm 2 mps 708 mmHg 64%
    18:00 +29°C° 0.2 mm 2 mps 708 mmHg 70%
    19:00 +28°C° 0.2 mm 3 mps 708 mmHg 73%
    20:00 +27°C° 0.2 mm 3 mps 709 mmHg 76%
    21:00 +26°C° 0.2 mm 3 mps 710 mmHg 79%
    22:00 +25°C° 0 mm 4 mps 710 mmHg 78%
    23:00 +23°C° 0 mm 5 mps 710 mmHg 78%

    17 November, Saturday

    Time Temperature Precipitation Wind Pressure Humidity
    00:00 +22°C° 0 mm 5 mps 710 mmHg 77%
    01:00 +21°C° 0 mm 5 mps 709 mmHg 78%
    02:00 +21°C° 0 mm 5 mps 709 mmHg 78%
    03:00 +20°C° 0 mm 5 mps 709 mmHg 79%
    04:00 +20°C° 0 mm 5 mps 709 mmHg 80%
    05:00 +20°C° 0 mm 5 mps 709 mmHg 81%
    06:00 +20°C° 0 mm 5 mps 709 mmHg 82%
    07:00 +22°C° 0 mm 5 mps 710 mmHg 77%
    08:00 +25°C° 0 mm 5 mps 710 mmHg 72%
    09:00 +26°C° 0 mm 5 mps 711 mmHg 67%
    10:00 +28°C° 0 mm 5 mps 711 mmHg 63%
    11:00 +30°C° 0 mm 5 mps 710 mmHg 58%
    12:00 +33°C° 0 mm 5 mps 710 mmHg 54%
    13:00 +33°C° 0.1 mm 4 mps 709 mmHg 53%
    14:00 +33°C° 0.1 mm 4 mps 709 mmHg 52%
    15:00 +34°C° 0.1 mm 3 mps 708 mmHg 51%
    16:00 +33°C° 0.1 mm 3 mps 708 mmHg 56%
    17:00 +31°C° 0.1 mm 3 mps 708 mmHg 61%
    18:00 +30°C° 0.1 mm 3 mps 707 mmHg 66%
    19:00 +28°C° 0 mm 3 mps 708 mmHg 71%
    20:00 +27°C° 0 mm 3 mps 708 mmHg 76%
    21:00 +26°C° 0 mm 3 mps 708 mmHg 81%
    22:00 +25°C° 0 mm 3 mps 708 mmHg 82%
    23:00 +25°C° 0 mm 3 mps 707 mmHg 83%

    18 November, Sunday

    Time Temperature Precipitation Wind Pressure Humidity
    00:00 +25°C° 0 mm 3 mps 707 mmHg 84%
    01:00 +24°C° 0 mm 3 mps 707 mmHg 86%
    02:00 +24°C° 0 mm 3 mps 707 mmHg 88%
    03:00 +22°C° 0 mm 3 mps 706 mmHg 89%
    04:00 +22°C° 0 mm 3 mps 706 mmHg 90%
    05:00 +22°C° 0 mm 3 mps 707 mmHg 90%
    06:00 +23°C° 0 mm 2 mps 707 mmHg 91%
    07:00 +24°C° 0 mm 3 mps 707 mmHg 85%
    08:00 +26°C° 0 mm 4 mps 708 mmHg 80%
    09:00 +27°C° 0 mm 4 mps 708 mmHg 75%
    10:00 +28°C° 0.4 mm 4 mps 708 mmHg 71%
    11:00 +30°C° 0.4 mm 4 mps 707 mmHg 67%
    12:00 +32°C° 0.4 mm 5 mps 707 mmHg 63%
    13:00 +30°C° 1.1 mm 4 mps 706 mmHg 65%
    14:00 +30°C° 1.1 mm 4 mps 706 mmHg 67%
    15:00 +30°C° 1.1 mm 3 mps 706 mmHg 69%
    16:00 +28°C° 1.5 mm 3 mps 706 mmHg 75%
    17:00 +27°C° 1.5 mm 2 mps 706 mmHg 81%
    18:00 +25°C° 1.5 mm 2 mps 706 mmHg 88%
    19:00 +25°C° 0.2 mm 2 mps 706 mmHg 89%
    20:00 +24°C° 0.2 mm 1 mps 707 mmHg 90%
    21:00 +24°C° 0.2 mm 1 mps 707 mmHg 92%
    22:00 +24°C° 0.1 mm 1 mps 707 mmHg 92%
    23:00 +24°C° 0.1 mm 1 mps 707 mmHg 93%

    19 November, Monday

    Time Temperature Precipitation Wind Pressure Humidity
    00:00 +23°C° 0.1 mm 1 mps 707 mmHg 94%
    01:00 +23°C° 0.6 mm 1 mps 707 mmHg 94%
    02:00 +23°C° 0.6 mm 2 mps 707 mmHg 94%
    03:00 +23°C° 0.6 mm 2 mps 706 mmHg 94%
    04:00 +21°C° 0.6 mm 2 mps 706 mmHg 93%
    05:00 +21°C° 0.6 mm 2 mps 707 mmHg 93%
    06:00 +21°C° 0.6 mm 2 mps 707 mmHg 93%
    07:00 +21°C° 0.6 mm 3 mps 708 mmHg 90%
    08:00 +22°C° 0.6 mm 3 mps 708 mmHg 87%
    09:00 +24°C° 0.6 mm 3 mps 709 mmHg 84%
    10:00 +23°C° 0.7 mm 4 mps 709 mmHg 80%
    11:00 +25°C° 0.7 mm 5 mps 709 mmHg 77%
    12:00 +26°C° 0.7 mm 6 mps 709 mmHg 74%
    13:00 +24°C° 0.1 mm 6 mps 709 mmHg 74%
    14:00 +23°C° 0.1 mm 6 mps 709 mmHg 74%
    15:00 +23°C° 0.1 mm 5 mps 708 mmHg 74%
    16:00 +22°C° 0 mm 5 mps 708 mmHg 74%
    17:00 +21°C° 0 mm 5 mps 708 mmHg 75%
    18:00 +20°C° 0 mm 5 mps 709 mmHg 76%
    19:00 +20°C° 0 mm 5 mps 709 mmHg 76%
    20:00 +19°C° 0 mm 5 mps 710 mmHg 77%
    21:00 +17°C° 0 mm 5 mps 710 mmHg 77%
    22:00 +17°C° 0 mm 5 mps 710 mmHg 79%
    23:00 +16°C° 0 mm 5 mps 710 mmHg 80%
    Show more